User: anonymous   Login
Location: Geroldsau
(48.7259°N, 8.2466°E)
Time: 19:06:21
(UTC+00:00)
Language:

Cosmos 1898 Rocket - Orbit

View from above orbital plane
View from above orbital plane
View from above satellite
View from above satellite

Ground track
Ground track

The orbit data is extracted from the following two-line orbital elements,

1 18586U 87098B   21268.11668769  .00000104  00000-0  43843-4 0  9994
2 18586  74.0053 300.6241 0021426 344.8791  15.1719 14.36971053771239
Epoch (UTC): 25 September 2021 02:48:01
Eccentricity: 0.0021426
inclination: 74.0053°
perigee height: 753 km
apogee height: 784 km
right ascension of ascending node: 300.6241°
argument of perigee: 344.8791°
revolutions per day: 14.36971053
mean anomaly at epoch: 15.1719°
orbit number at epoch: 77123

The dashed part of the orbit path shows where the satellite is in the earth's shadow,  

DLR